Location: Banff
(51.1670°N, 115.5670°W)
Time: 09:53:35
(UTC-07:00)

Daily predictions for brighter satellites

Satellite Brightness Start Highest point End
(mag) Time Altitude Azimuth Time Altitude Azimuth Time Altitude Azimuth
Cosmos 1570 Rocket 4.2 18:42:25 10° NNW 18:47:33 52° ENE 18:52:40 10° SE
Meteor 1-20 Rocket 4.3 18:41:59 10° S 18:47:48 73° E 18:53:39 10° NNE
Cosmos 1140 Rocket 4.1 18:44:08 10° SSE 18:48:42 33° ESE 18:53:19 10° NE
Cosmos 2322 3.8 18:43:10 10° NNW 18:48:57 87° ENE 18:54:40 10° SSE
YAOGAN 1 4.4 18:46:30 10° SSW 18:50:33 38° W 18:54:37 10° NNW
METEOR-M 4.1 18:46:14 10° SSE 18:51:31 66° ENE 18:56:50 10° N
SJ-6B 3.1 18:49:00 10° SE 18:52:47 45° ENE 18:56:30 10° N
Meteor 1-19 Rocket 4.3 18:48:08 10° N 18:53:46 61° ENE 18:59:27 10° SSE
Cosmos 405 Rocket 4.4 18:51:51 10° NNE 18:54:39 17° ENE 18:57:25 10° ESE
CZ-4 R/B 4.3 18:53:57 10° SSW 18:57:22 24° W 19:00:49 10° NW
BREEZE-M DEB (TANK) 3.9 18:58:51 10° WSW 19:01:29 49° SSE 19:11:40 10° E
Cosmos 1300 Rocket 3.9 18:57:53 10° SSE 19:02:03 42° E 19:06:15 10° NNE
Cosmos 1812 4.4 18:59:15 10° NNW 19:02:52 39° W 19:06:29 10° SSW
Helios 1B rocket 4.3 19:02:39 10° ENE 19:03:27 10° E 19:04:15 10° E
TSX-5 3.5 19:01:04 10° SSW 19:04:07 49° ESE 19:07:29 10° NE
Cosmos 1190 Rocket 4.2 18:59:24 10° SSW 19:04:35 79° WNW 19:09:51 10° NNE
CZ-2D R/B 4.5 19:01:37 10° ESE 19:04:38 23° ENE 19:07:42 10° NNE
Cosmos 2237 Rocket 3.1 18:59:41 10° NNW 19:04:46 32° NE 19:09:50 10° ESE
Helios 1A 4.2 19:01:54 10° ESE 19:05:05 22° ENE 19:08:17 10° N
H-2A R/B 3.6 19:02:29 10° SE 19:05:42 28° ENE 19:09:00 10° N
Cosmos 2333 4.3 19:00:06 10° NNW 19:05:47 62° NE 19:11:30 10° SE
Cosmos 2237 4.2 19:00:53 10° NNW 19:06:41 83° ENE 19:12:24 10° SSE
COSMOS 2428 2.7 19:00:58 10° NNW 19:06:41 70° ENE 19:12:21 10° SE
COSMO-SKYMED 1 2.6 19:02:30 10° NNE 19:06:53 90° SE 19:11:14 10° SSW
USA 229 DEB 3.8 19:00:29 10° NW 19:07:36 77° NE 19:14:51 10° SE
USA 229 3.8 19:00:35 10° NW 19:07:42 76° NE 19:14:57 10° SE
Cosmos 1238 Rocket 1.9 19:06:11 10° N 19:09:13 78° E 19:12:10 10° SSE
Gbstr 26 Del rocket 4.0 19:06:29 10° SSW 19:09:32 23° SE 19:12:04 12° E
Thor Agena Rocket 4.0 19:05:13 10° N 19:10:15 64° WNW 19:15:14 10° SSW
Spot 2 Rocket 3.8 19:06:06 10° SE 19:10:53 44° ENE 19:15:43 10° N
Meteor 2-4 Rocket 3.7 19:06:02 10° N 19:11:34 60° ENE 19:16:56 10° SSE
Meteor 1-13 Rocket 4.3 19:07:53 10° NNW 19:13:29 88° W 19:19:08 10° S
Meteor 1-23 Rocket 4.4 19:09:01 10° N 19:14:45 55° ENE 19:20:23 10° SSE
Resurs 01 Rocket 1.9 19:12:43 10° SE 19:16:55 46° ENE 19:21:10 10° N
Cosmos 2208 Rocket 4.1 19:11:54 10° NNW 19:17:25 80° ENE 19:22:49 10° SSE
BREEZE-M DEB (TANK) 3.3 19:15:21 10° W 19:17:27 30° SSW 19:21:10 10° SE
Cosmos 2360 Rocket 3.1 19:12:48 10° NW 19:18:19 54° WSW 19:23:48 10° S
Cosmos 2219 Rocket 2.4 19:13:17 10° NNW 19:18:47 53° NE 19:24:16 10° SE
NOSS 3-1 (A) 4.3 19:12:58 10° NW 19:19:52 49° NNE 19:26:48 13° ESE
Cosmos 1536 3.2 19:17:56 10° SSE 19:21:39 39° E 19:25:24 10° NNE
HJ-1C 3.4 19:21:06 10° SSE 19:24:27 62° ENE 19:27:48 10° N
Cosmos 1850 Rocket 4.4 19:19:42 10° S 19:24:42 43° ESE 19:29:46 10° NE
USA 215 3.5 19:18:17 10° ENE 19:24:48 71° NNW 19:31:17 10° WSW
ATLAS 2AS CENTAUR R/B 4.0 19:17:26 10° NW 19:24:50 36° N 19:31:17 13° ENE
SL-19 R/B 4.4 19:20:14 10° SSE 19:25:59 68° ENE 19:32:12 10° NNW
Aureole 2 Rocket 4.5 19:24:27 10° NNE 19:26:01 12° NE 19:26:26 12° NE
Envisat 4.1 19:24:19 14° ESE 19:27:32 25° ENE 19:31:36 10° N
Cosmos 2219 3.7 19:24:20 10° S 19:29:37 39° ESE 19:34:55 10° NE
Resurs 1-3 3.7 19:25:23 10° SE 19:29:39 52° ENE 19:33:55 10° N
Cosmos 1954 Rocket 4.0 19:25:01 10° SSW 19:30:14 87° ESE 19:35:32 10° NNE
ATLAS CENTAUR R/B 3.8 19:29:33 10° NW 19:31:59 15° NNW 19:34:20 10° NNE
Cosmos 2227 Rocket 3.9 19:30:26 10° SE 19:31:30 13° ESE 19:31:30 13° ESE
Cosmos 2181 Rocket 4.3 19:29:24 10° NNW 19:35:38 72° W 19:41:56 10° S
NOSS 3-1 (C) 4.0 19:31:22 10° NW 19:38:32 64° NE 19:45:20 15° ESE
SL-16 R/B 3.2 19:34:54 10° NNW 19:39:48 28° NE 19:42:32 20° E
Cosmos 1892 Rocket 3.9 19:35:44 10° N 19:39:53 41° ENE 19:44:01 10° SE
Cosmos 1602 3.9 19:36:19 10° SSW 19:40:12 76° W 19:44:10 10° N
USA 186 2.4 19:40:52 28° ENE 19:40:58 28° ENE 19:43:29 10° N
Okean 1 Rocket 3.0 19:36:30 10° S 19:40:59 77° E 19:45:29 10° NNE
Cosmos 1025 Rocket 3.0 19:41:50 10° N 19:46:15 84° E 19:50:39 10° SSE
Spot 1 4.1 19:42:18 10° SE 19:46:17 52° ENE 19:50:24 10° N
SAR-Lupe-1 4.3 19:44:23 16° SE 19:46:57 47° ENE 19:50:25 10° N
SAR-Lupe-4 3.6 19:44:19 11° SSE 19:47:38 56° ENE 19:51:10 10° N
Cosmos 371 Rocket 4.3 19:45:34 10° N 19:49:49 28° NE 19:51:18 24° E
Cosmos 1709 Rocket 4.4 19:44:55 10° SSW 19:51:04 65° WNW 19:57:12 10° N
Cosmos 2074 Rocket 4.0 19:45:53 10° S 19:52:02 64° E 19:58:16 10° NNE
ALOS 2.7 19:49:40 10° S 19:54:19 66° WSW 19:59:00 10° NNW
Meteor 1-11 Rocket 4.0 19:50:44 10° SSW 19:56:36 78° WNW 20:02:36 10° N
Cosmos 2184 Rocket 3.9 19:51:12 10° S 19:57:25 67° E 20:03:37 10° NNE
Abrixas rocket 4.0 19:56:16 10° SSW 19:58:29 20° SSE 19:58:29 20° SSE
Cosmos 2333 Rocket 2.2 19:55:17 10° NNW 20:01:04 82° ENE 20:05:58 15° SSE
H-2A R/B 4.1 20:02:31 13° NE 20:02:31 13° NE 20:04:44 10° NNE
Cosmos 841 Rocket 3.9 19:57:56 10° NNW 20:02:50 42° ENE 20:04:39 31° ESE
Cosmos 1980 3.6 19:58:30 10° NNW 20:04:11 72° ENE 20:08:02 21° SE
SL-08 ROCKET BODY 4.4 20:02:04 10° S 20:08:17 89° E 20:14:31 10° N
Cosmos 1544 Rocket 3.8 20:05:10 10° SSE 20:09:15 42° E 20:13:21 10° NNE
Nadezhda 3 Rocket 3.9 20:04:01 10° N 20:10:09 63° ENE 20:16:17 10° SSE
Cosmos 1437 2.7 20:07:08 10° N 20:10:25 61° ENE 20:10:28 61° E
Meteor 2-13 Rocket 4.4 20:05:21 10° S 20:11:16 59° E 20:17:17 10° NNE
Cosmos 1763 Rocket 3.5 20:09:22 10° NNW 20:14:26 59° ENE 20:16:27 35° SE
GEOS 3 Rocket 3.9 20:13:35 30° ENE 20:15:44 46° SE 20:20:47 10° SSW
Cosmos 1741 Rocket 4.0 20:11:49 10° SSW 20:17:03 81° WNW 20:22:19 10° NNE
Cosmos 1602 Rocket 4.2 20:14:36 10° N 20:18:24 37° ENE 20:18:24 37° ENE
Cosmos 540 Rocket 4.3 20:16:33 10° N 20:21:05 30° NE 20:21:17 30° ENE
NOSS 0 Rocket 4.1 20:14:58 10° NW 20:21:09 75° WSW 20:26:11 16° SSE
CZ-4B DEB 3.0 20:22:01 58° N 20:22:01 58° N 20:24:39 10° NNW
Cosmos 1515 3.6 20:17:43 10° N 20:21:36 71° E 20:22:09 59° SE
Cosmos 1626 Rocket 4.0 20:19:53 10° N 20:23:54 43° ENE 20:23:54 43° ENE
Cosmos 2341 Rocket 4.2 20:18:09 10° SSE 20:24:10 46° E 20:30:15 10° NNE
Cosmos 2154 Rocket 4.0 20:20:31 10° S 20:26:44 62° E 20:33:00 10° NNE
Meteor 1-5 Rocket 4.4 20:24:48 10° SSW 20:30:46 79° WNW 20:36:39 10° N
Cosmos 405 Rocket 3.4 20:27:06 10° NNW 20:31:07 57° W 20:34:09 16° S
Helios 1B rocket 2.3 20:35:15 10° NNE 20:39:26 85° ESE 20:43:36 10° SSW
Helios 1A 3.8 20:37:02 14° S 20:40:23 49° W 20:44:27 10° NNW
Cosmos 1455 Rocket 3.6 20:48:04 46° NNE 20:48:04 46° NNE 20:51:12 10° NNE
Meteor 1-12 Rocket 4.2 20:42:26 10° S 20:48:22 70° E 20:54:15 10° NNE
Cosmos 2237 Rocket 2.6 20:43:36 10° NW 20:49:15 63° WSW 20:51:59 31° S
Cosmos 1066 Rocket 4.1 20:46:37 10° NNW 20:52:21 88° W 20:54:16 43° S
Resurs 01 Rocket 3.9 20:50:05 10° SSW 20:53:38 24° W 20:57:12 10° NW
ARGOS 4.0 20:54:41 36° NE 20:54:41 36° NE 20:58:41 10° N
SPOT 5 3.8 20:54:55 36° NNE 20:54:55 36° NNE 20:58:34 10° N
Gbstr 26 Del rocket 3.7 20:52:10 10° WSW 20:54:40 40° WSW 20:54:40 40° WSW
Cosmos 1939 Rocket 3.3 20:58:13 57° NW 20:58:13 57° NW 21:01:32 10° NNW
Cosmos 962 Rocket 4.3 20:52:24 10° S 20:58:34 78° E 21:04:43 10° NNE
Cosmos 1441 Rocket 4.0 20:57:25 10° NNW 21:01:01 53° WNW 21:01:01 53° WNW
Aureole 2 Rocket 4.4 20:58:36 10° NNW 21:00:15 25° NNW 21:00:15 25° NNW
Meteor 1-21 4.2 20:56:44 10° N 21:02:11 63° ENE 21:02:11 63° ENE
Cosmos 2219 Rocket 3.7 20:57:37 10° NW 21:02:32 32° WSW 21:07:13 11° SSW
Meteor 2-8 Rocket 4.4 20:56:53 10° NNW 21:02:58 83° W 21:05:11 42° S
USA 32 4.2 20:59:48 10° N 21:05:02 72° W 21:06:27 48° SSW
ERS-1 Rocket 2.8 21:05:14 88° NNE 21:05:14 88° NNE 21:10:16 10° NNW
Envisat 3.4 21:04:30 39° SSW 21:06:12 61° W 21:11:16 10° NNW
USA 215 3.7 21:05:11 38° NE 21:07:27 54° N 21:13:47 10° WNW
MetOp-B 4.4 21:08:35 55° NNE 21:08:35 55° NNE 21:13:06 10° N
Meteor 2-19 Rocket 4.4 21:10:07 63° ENE 21:10:07 63° ENE 21:15:38 10° NNE
NOSS 3-1 (A) 4.2 21:03:56 10° NW 21:11:18 68° SW 21:14:17 41° SSE
ATLAS CENTAUR R/B 3.9 21:10:38 10° NNW 21:12:12 13° N 21:12:12 13° N
H-2A R/B 4.4 21:16:38 15° N 21:16:38 15° N 21:17:27 10° N
Cosmos 2219 4.2 21:08:13 10° SW 21:13:44 46° NW 21:19:16 10° NNE
Cosmos 2227 Rocket 3.4 21:10:56 10° SSW 21:13:32 29° SSW 21:13:32 29° SSW
ATLAS 2AS CENTAUR R/B 3.1 21:09:18 10° NW 21:17:25 62° NE 21:18:44 56° ENE
SL-16 R/B 2.3 21:18:47 10° NNW 21:24:27 73° WSW 21:24:27 73° WSW
Cosmos 1943 4.5 21:24:57 10° NNW 21:28:46 30° NNE 21:28:46 30° NNE
Cosmos 371 Rocket 4.1 21:25:46 10° NNW 21:30:00 49° W 21:30:00 49° W
H-2A R/B 3.5 21:43:08 32° N 21:43:08 32° N 21:46:08 10° N
SL-8 Rocket 4.2 21:43:11 66° N 21:43:11 66° N 21:48:35 10° N
Cosmos 2333 Rocket 4.4 21:40:36 10° NW 21:44:40 20° W 21:48:03 12° SW
Terra 4.2 22:00:42 16° N 22:00:42 16° N 22:01:46 10° N
USA 215 4.3 22:52:31 41° NW 22:52:31 41° NW 22:56:36 10° WNW
ATLAS 2AS CENTAUR R/B 4.0 23:00:44 10° NW 23:06:10 40° WNW 23:06:10 40° WNW
